Regional Weather Roundup
Issued by NWS

Home | Current Version | Previous Version | Text Only | Print | Product List | Glossary Off
Versions: 1 2 3 4 5 6 7 8 9 10 11 12 13 14 15 16 17 18 19 20 21 22 23 24 25 26 27 28 29 30 31 32 33 34 35 36 37 38 39 40 41 42 43 44 45 46 47 48 49 50

000
ASUS43 KDTX 302010
RWRMI
MICHIGAN HOURLY REGIONAL WEATHER ROUNDUP
NATIONAL WEATHER SERVICE DETROIT/PONTIAC MI
400 PM EDT FRI SEP 30 2016

NOTE: "FAIR" INDICATES FEW OR NO CLOUDS BELOW 12,000 FEET WITH NO
SIGNIFICANT WEATHER AND/OR OBSTRUCTION TO VISIBILITY.

MIZ047>049-052>055-059>063-066>070-074>076-081>083-302100-
SOUTHEAST LOWER MICHIGAN

CITY           SKY/WX    TMP DP  RH WIND       PRES   REMARKS
ADRIAN         LGT RAIN  61  60  97 E10G18    30.07F
ALMA           RAIN      60  60  99 N8G21     30.17F
ANN ARBOR      CLOUDY    60  59  96 NE10      30.10S
BAD AXE        CLOUDY    65  58  77 NE14      30.18F
CARO           RAIN      59  58  97 NE3       30.17F
DETROIT CITY   LGT RAIN  60  60 100 NE8       30.12F FOG
DETROIT        CLOUDY    61  61 100 NE9       30.11F
FLINT          HVY RAIN  59  58  96 NE10      30.15F FOG
GROSSE ILE     CLOUDY    62  59  89 E9        30.10R
HILLSDALE      LGT RAIN  59  57  94 NE9G16    30.05F
HOWELL         DRIZZLE   59  58  97 NE7       30.12F

CITY           SKY/WX    TMP DP  RH WIND       PRES   REMARKS
JACKSON        CLOUDY    61  59  93 NE10      30.10F
LAMBERTVILLE   CLOUDY    64  60  90 E5        30.08R
LANSING        CLOUDY    59  56  89 NE13      30.13F FOG
LAPEER         RAIN      59  58  97 NE7       30.16F
MASON          LGT RAIN  59  58  95 N6        30.11F
MONROE         RAIN      62  60  93 NE7G18    30.09R
MT. CLEMENS    LGT RAIN  61  61 100 NE13      30.11F FOG
PONTIAC        LGT RAIN  59  57  93 NE12      30.12F FOG
PORT HURON     RAIN      61  61 100 NE7       30.15F
TRI CITIES     RAIN      60  59  96 NE14      30.19F VSB 1
MIDLAND        RAIN      60  59  97 NE9       30.18F
TROY           DRIZZLE   60  58  92 NE10      30.14F
SAGINAW HB     RAIN      59  57  94 NE10      30.17F
$$
MIZ043>046-050>051-056>058-064>065-071>073-077>080-302100-
SOUTHWEST LOWER MICHIGAN

CITY           SKY/WX    TMP DP  RH WIND       PRES   REMARKS
BATTLE CREEK   CLOUDY    60  58  92 NE13G20   30.10F
BENTON HARBOR  CLOUDY    64  57  78 NE12      30.08S
BIG RAPIDS     CLOUDY    61  59  94 E10       30.18F
COLDWATER      CLOUDY    61  59  94 NE13G24   30.08F
FREMONT        CLOUDY    61  58  90 NE9       30.16F
HOLLAND        CLOUDY    63  57  81 NE9G18    30.12F
GRAND RAPIDS   CLOUDY    62  56  80 E14G23    30.14S
IONIA          CLOUDY    59  57  92 NE13G21   30.15R
KALAMAZOO      LGT RAIN  60  56  86 NE12G18   30.10F FOG
LUDINGTON      CLOUDY    63  58  83 NE9       30.19S
MARSHALL       CLOUDY    60  59  97 NE6       30.09F
MOUNT PLEASANT RAIN      60  59  96 NE10      30.18F
MUSKEGON       CLOUDY    64  58  80 NE14      30.14F
SOUTH HAVEN    CLOUDY    63  59  87 E9G16     30.10R
$$
MIZ016>042-302100-
NORTHERN LOWER MICHIGAN

CITY           SKY/WX    TMP DP  RH WIND       PRES   REMARKS
ALPENA         CLOUDY    64  54  69 E14       30.28F
BEAVER ISLAND  PTSUNNY   64  53  68 E16G24    30.27F
BELLAIRE       CLOUDY    70  56  62 E6        30.22F
CADILLAC       LGT RAIN  59  57  94 E7        30.21S
CHARLEVOIX     PTSUNNY   68  56  66 NE13      30.27F
FRANKFORT      CLOUDY    65  56  74 NE5       30.21F
GAYLORD        CLOUDY    66  53  63 NE12G20   30.25F
GRAYLING       CLOUDY    63  56  79 NE12G17   30.25S
HARBOR SPRINGS MOSUNNY   65  54  66 E18G24    30.26S
HOUGHTON LAKE  LGT RAIN  60  57  89 E9        30.23S
MANISTEE       LGT RAIN  63  58  83 NE8       30.20F
OSCODA         CLOUDY    64  56  75 NE17G23   30.23S
PELLSTON       CLOUDY    65  52  62 E15       30.29S
ROGERS CITY    CLOUDY    64  55  74 E9        30.30F
TRAVERSE CITY  PTSUNNY   68  58  70 NE9       30.20F
$$
MIZ007>008-015-302100-
EASTERN UPPER MICHIGAN

CITY           SKY/WX    TMP DP  RH WIND       PRES   REMARKS
KINROSS        CLOUDY    69  49  48 E14       30.31F
MACKINAC ISLAN CLOUDY    63  53  68 E10G17    30.29F
NEWBERRY       PTSUNNY   67  53  61 NE9       30.30F
S. S. MARIE    PTSUNNY   72  48  42 VRB7      30.30F
MUNISING         N/A     63  58  83 N16       30.30F
$$
MIZ004>006-011>014-085-302100-
CENTRAL UPPER MICHIGAN

CITY           SKY/WX    TMP DP  RH WIND       PRES   REMARKS
MANISTIQUE     MOSUNNY   70  51  52 E9        30.28S
ESCANABA       CLOUDY    69  53  56 E9        30.27F
MENOMINEE      PTSUNNY   63  55  75 E15       30.26F
SAWYER-GWINN   CLOUDY    61  54  77 NE13      30.33F
$$
MIZ001>003-009>011-084-302100-
WESTERN UPPER MICHIGAN

CITY           SKY/WX    TMP DP  RH WIND       PRES   REMARKS
IRON MOUNTAIN  PTSUNNY   68  49  50 NE8       30.28F
HOUGHTON       SUNNY     66  50  56 E10       30.35F
COPPER HARBOR    N/A     62  56  80 E8        30.36F
IRONWOOD       SUNNY     63  56  78 N8        30.35S
$$

ABBREVIATIONS USED IN REMARKS
   TC - TEMPERATURE IN CELSIUS
  WCI - WIND CHILL INDEX
   HX - HEAT INDEX
  VSB - VISIBILITY





USA.gov is the U.S. government's official web portal to all federal, state and local government web resources and services.